FREGAT DEB, 52963

Orbit data source: Space-Track

FREGAT DEB, 52963 is space debris in LEO originally from a launch on Mon, 18 Jul 2011 UTC launched from the Tyuratam Missile And Space Complex (TTMTR). Debris objects in space refer to the collection of defunct objects orbiting the Earth. Examples of debris include non-operational satellites, rocket bodies, and fragments generated from explosions, collisions, or faulty payload assembly.

Loading next visibility...
Identifier
52963, 2011-037PS
Orbit
LEO
Country
Flag of CISCIS
Related business
Manufacturer
Lavochkin
Mission
Spacecraft
Bus & Motor
Unknown
Mass
Unknown
Launch date (UTC)
2011-07-18 (14 years ago)
Launch vehicle
Unknown
Launch site
Tyuratam Missile And Space Complex (TTMTR)
Object type
Payload
Rocket body
Debris
Shape & HBR
Unknown shape, 0.1 m
Radar Cross Section
Small (<0.1 m²)

Expand to show TLE details & history
Last TLE update: 5 days ago

TLE from 5 days ago
0 FREGAT DEB
1 52963U 11037PS  25306.02873571  .00196269 -20727-5  24740-2 0  9992
2 52963  26.3829  63.2130 0763303 191.7387 166.4370 14.22235239166609
Epoch: 2025-11-02T00:41Z
TLE epoch observation values (Epoch: 2025-11-02T00:41:22.765Z)
Latitude
-0.00003°
Longitude
11.31776°
Altitude
1,351.797 km
Speed
6.913 km/s
True Right ascension
04h 12m 51s
True Declination
0° 00' 00"
Sunlit
Object was in full shadow at epoch
Visualization orbit readout
Latitude
Unknown
Longitude
Unknown
Altitude
Unknown
Speed
Unknown
Apparent Right ascension
Unknown
Apparent Declination
Unknown
Sunlit
N/A
Visualization observer readout
Local Sidereal Time
10:16:05
Azimuth
Unknown
Elevation
Unknown
Doppler factor
Unknown
Orbital elements
Apogee altitude
1,371.756 km
Perigee altitude
272.555 km
Semi-major axis
7,200.292 km
Eccentricity
0.07633
Inclination
26.3829°
RAAN
63.213°
Arg. of periapsis
191.7387°
True anomaly
168.3133°
Mean anomaly
166.437°
Eccentric anomaly
167.39165°
Mean motion
3.55237 °/min
Orbital period
101.34 mins
BSTAR
0.002474
Loading maneuver chart data...
Computing Atmospheric mass density...
Loading historical data...
Loading historical data...
Loading historical data...
Loading historical data...
Loading historical data...
Loading historical data...
Loading historical data...

Documentation

Showing up to 5 results
|